星链-4792 (STARLINK-4792 )

导读

STARLINK-4792是美国太空探索技术公司(SpaceX)星链互联网星座的组网卫星,于2022年9月19日发射,归入低地球轨道运行,属于Starlink Group 4系列卫星,星链星座旨在为全球提供低延迟高速卫星互联网服务,该卫星承担星座网络补网增强角色,提升覆盖区域网络的稳定性与容量。

基本信息
目录编号:
53862
目录名称:
STARLINK-4792
国际标识:
2022-114AW
轨道中心:
EARTH
卫星名称:
星链-4792
卫星全名:
星链-4792 (STARLINK-4792 )
卫星状态:
已陨落 最后检测时间 2024-12-29
发射日期:
2022-09-19 UTC
国别 :
美国 (US)
星等 :
--
该卫星已列入 空间交会检测服务 Space Conjunction Data Service (SCDS) ,当前飞行风险评估等级: 无高风险
轨道信息
数据来源 国际轨道数据
星历时间: 2024-12-30T07:02:00+0800
轨道信息已过期621天
半长轴: 6533.938km
偏心率: 0.0003758
轨道倾角: 53.192°
近地点辐角 145.829°
升交点赤经 54.548°
平近点角 346.319°
近地点: 153.347km
远地点: 158.259km
周期: 87.604分钟
每日圈数: 16.437673
详细信息
固有亮度:
5
最大亮度:
2.5
卫星平台:
Starlink v1.5
覆盖范围:
全球
运营商:
太空探索技术公司
运营商所在国:
美国
制造商(研发单位):
太空探索技术公司
制造商所在国:
美国
使用方式:
暂无
卫星简介
星链(Starlink)计划是由太空探索技术公司(SpaceX)提出的一个巨型低轨卫星互联网星座项目,计划在2019年至2024年间在太空搭建由约1.2万颗卫星组成的“星链”网络,其中1584颗将部署在地球上空550千米处的近地轨道,并从2020年开始工作。该卫星仍在工作。
与全量物体交会距离演化趋势
与全量物体交会风险概率演化趋势